TimeCDT,TemperatureF,Dew PointF,Humidity,Sea Level PressureIn,VisibilityMPH,Wind Direction,Wind SpeedMPH,Gust SpeedMPH,PrecipitationIn,Events,Conditions,WindDirDegrees,DateUTC
12:55 AM,42.8,27.9,56,30.17,10.0,NW,8.1,-,N/A,,Mostly Cloudy,310,2013-03-13 05:55:00
1:55 AM,41.2,29.3,63,30.18,10.0,NNW,6.9,-,N/A,,Mostly Cloudy,330,2013-03-13 06:55:00
2:55 AM,38.1,23.9,57,30.19,10.0,NW,9.2,-,N/A,,Clear,320,2013-03-13 07:55:00
3:55 AM,35.6,23.7,62,30.19,10.0,WNW,4.6,-,N/A,,Clear,300,2013-03-13 08:55:00
4:55 AM,35.2,23.7,63,30.20,10.0,NW,8.1,-,N/A,,Mostly Cloudy,310,2013-03-13 09:55:00
5:55 AM,35.6,24.4,64,30.22,10.0,NW,8.1,-,N/A,,Overcast,310,2013-03-13 10:55:00
6:52 AM,35.6,23.0,60,30.24,10.0,NW,10.4,20.7,N/A,,Overcast,320,2013-03-13 11:52:00
6:55 AM,35.2,23.5,62,30.24,10.0,NW,10.4,20.7,N/A,,Overcast,320,2013-03-13 11:55:00
7:03 AM,35.6,23.0,60,30.25,10.0,NW,11.5,-,N/A,,Overcast,310,2013-03-13 12:03:00
7:07 AM,35.6,23.0,60,30.25,10.0,NW,15.0,20.7,N/A,,Overcast,310,2013-03-13 12:07:00
7:15 AM,35.6,21.2,56,30.25,10.0,NW,13.8,20.7,N/A,,Overcast,310,2013-03-13 12:15:00
7:55 AM,35.1,21.7,58,30.27,10.0,NW,9.2,-,N/A,,Mostly Cloudy,320,2013-03-13 12:55:00
8:55 AM,35.4,22.8,60,30.30,10.0,NW,15.0,20.7,N/A,,Scattered Clouds,320,2013-03-13 13:55:00
9:55 AM,35.4,24.4,64,30.32,10.0,NW,10.4,18.4,N/A,,Scattered Clouds,310,2013-03-13 14:55:00
10:22 AM,35.6,23.0,60,30.33,10.0,NW,12.7,-,N/A,,Scattered Clouds,320,2013-03-13 15:22:00
10:26 AM,35.6,23.0,60,30.33,10.0,NW,16.1,19.6,N/A,,Mostly Cloudy,310,2013-03-13 15:26:00
10:28 AM,35.6,23.0,60,30.33,10.0,NW,13.8,19.6,N/A,,Light Drizzle,310,2013-03-13 15:28:00
10:37 AM,35.6,26.6,70,30.34,10.0,NW,12.7,-,N/A,,Mostly Cloudy,320,2013-03-13 15:37:00
10:47 AM,35.6,26.6,70,30.34,10.0,NW,12.7,19.6,N/A,,Mostly Cloudy,320,2013-03-13 15:47:00
10:50 AM,35.6,26.6,70,30.34,10.0,NNW,8.1,19.6,N/A,,Mostly Cloudy,330,2013-03-13 15:50:00
10:55 AM,36.3,25.3,64,30.33,10.0,NW,13.8,17.3,0.00,,Mostly Cloudy,310,2013-03-13 15:55:00
11:55 AM,37.9,20.1,49,30.35,10.0,WNW,17.3,-,N/A,,Mostly Cloudy,300,2013-03-13 16:55:00
12:55 PM,37.2,19.6,49,30.37,10.0,NNW,13.8,23.0,N/A,,Overcast,330,2013-03-13 17:55:00
1:55 PM,38.3,19.0,46,30.36,10.0,WNW,10.4,18.4,N/A,,Overcast,300,2013-03-13 18:55:00
2:55 PM,40.1,19.2,43,30.36,10.0,WNW,16.1,23.0,N/A,,Mostly Cloudy,290,2013-03-13 19:55:00
3:55 PM,39.2,17.4,41,30.36,10.0,NNW,10.4,20.7,N/A,,Mostly Cloudy,330,2013-03-13 20:55:00
4:55 PM,40.8,18.3,40,30.36,10.0,WNW,13.8,20.7,N/A,,Mostly Cloudy,290,2013-03-13 21:55:00
5:55 PM,39.9,18.3,42,30.37,10.0,NW,13.8,20.7,N/A,,Clear,320,2013-03-13 22:55:00
6:55 PM,37.6,18.9,47,30.39,10.0,NNW,8.1,-,N/A,,Clear,330,2013-03-13 23:55:00
7:55 PM,32.9,20.7,61,30.40,10.0,North,4.6,-,N/A,,Clear,360,2013-03-14 00:55:00
8:55 PM,30.6,20.8,67,30.41,10.0,North,4.6,-,N/A,,Clear,350,2013-03-14 01:55:00
9:55 PM,32.0,19.9,61,30.42,10.0,Calm,Calm,-,N/A,,Clear,0,2013-03-14 02:55:00
10:55 PM,31.5,19.4,61,30.43,10.0,Calm,Calm,-,N/A,,Clear,0,2013-03-14 03:55:00
11:55 PM,29.7,20.5,69,30.44,10.0,Calm,Calm,-,N/A,,Clear,0,2013-03-14 04:55:00